Lubbock, TX

5:23 PM CDT on April 21, 2018 (GMT -0500)
Lubbock International

Weather History for KLBB - June, 2014

Change the Weather History Date:

Tuesday, June 10, 2014

  Actual Average Record
Temperature  
Mean Temperature 69 °F 76 °F  
Max Temperature 84 °F 90 °F 105 °F (1917)
Min Temperature 54 °F 63 °F 47 °F (1955)
Degree Days  
Heating Degree Days 0 0  
Month to date heating degree days 0 0  
Since 1 June heating degree days 0 0  
Since 1 July heating degree days 3513 3377  
Cooling Degree Days 4 12  
Month to date cooling degree days 124 107  
Year to date cooling degree days 403 353  
Since 1 June cooling degree days 124 107  
Growing Degree Days 19 (Base 50)    
Moisture  
Dew Point 51 °F    
Average Humidity 58    
Maximum Humidity 86    
Minimum Humidity 30    
Precipitation  
Precipitation 0.00 in 0.10 in 1.48 in (1980)
Month to date precipitation 1.13 1.11  
Year to date precipitation 7.26 7.32  
Snow  
Snow 0.00 in 0.00 in 0.00 in (1951)
Month to date snowfall 0.0 0.0  
Since 1 June snowfall 0.0 0.0  
Since 1 July snowfall 4.2 8.2  
Snow Depth 0.00 in    
Sea Level Pressure  
Sea Level Pressure 29.91 in    
Wind  
Wind Speed 9 mph (WNW)    
Max Wind Speed 16 mph    
Max Gust Speed 20 mph    
Visibility 10 miles    
Events      
T = Trace of Precipitation, MM = Missing Value Source: NWS Daily Summary

Daily Weather History Graph

Daily Weather History Graph

Search for Another Location

Airport or City:

Astronomy

Jun. 10, 2014 Rise Set
Actual Time 6:36 AM CDT 8:57 PM CDT
Civil Twilight 6:07 AM CDT 9:26 PM CDT
Nautical Twilight 5:32 AM CDT 10:01 PM CDT
Astronomical Twilight 4:53 AM CDT 10:40 PM CDT
Moon 6:30 PM CDT (6/10) 4:35 AM CDT (6/10)
Length of Visible Light 15h 18m
Length of Day
14h 20m
Waxing Gibbous, 92% of the Moon is Illuminated
Jun 10
Waxing Gibbous
Jun 12
Full
Jun 19
Last Quarter
Jun 27
New
Jul 5
First Quarter

Hourly Weather History & Observations

Time (CDT) Temp. Dew Point Humidity Pressure Visibility Wind Dir Wind Speed Gust Speed Precip Events Conditions
12:53 AM 57.0 °F 52.0 °F 83% 29.94 in 10.0 mi WNW 5.8 mph - N/A   Clear
1:53 AM 57.0 °F 51.1 °F 81% 29.93 in 10.0 mi NW 8.1 mph - N/A   Clear
2:53 AM 55.4 °F 51.8 °F 88% 30.02 in 10.0 mi NW 11.5 mph - N/A   Clear
3:53 AM 55.0 °F 51.1 °F 86% 29.92 in 10.0 mi WNW 8.1 mph - N/A   Clear
4:53 AM 55.0 °F 50.0 °F 83% 29.91 in 10.0 mi NW 11.5 mph - N/A   Clear
5:53 AM 55.0 °F 50.0 °F 83% 29.92 in 10.0 mi WNW 9.2 mph - N/A   Clear
6:53 AM 54.0 °F 48.9 °F 83% 29.93 in 10.0 mi NW 10.4 mph - N/A   Partly Cloudy
7:53 AM 57.0 °F 50.0 °F 77% 29.93 in 10.0 mi North 10.4 mph - N/A   Partly Cloudy
8:53 AM 62.1 °F 51.1 °F 67% 29.95 in 10.0 mi NNW 15.0 mph - N/A   Partly Cloudy
9:53 AM 66.2 °F 51.8 °F 60% 30.06 in 10.0 mi NNW 12.7 mph - N/A   Partly Cloudy
10:53 AM 70.0 °F 51.1 °F 51% 29.96 in 10.0 mi North 10.4 mph - N/A   Partly Cloudy
11:53 AM 72.0 °F 51.1 °F 48% 29.95 in 10.0 mi Variable 5.8 mph - N/A   Partly Cloudy
12:53 PM 75.0 °F 50.0 °F 41% 29.94 in 10.0 mi Variable 6.9 mph - N/A   Partly Cloudy
1:53 PM 78.8 °F 50.0 °F 36% 30.04 in 10.0 mi Variable 5.8 mph - N/A   Partly Cloudy
2:53 PM 81.0 °F 46.0 °F 29% 29.90 in 10.0 mi WNW 8.1 mph 19.6 mph N/A   Partly Cloudy
3:53 PM 80.6 °F 48.2 °F 32% 29.99 in 10.0 mi WSW 10.4 mph - N/A   Partly Cloudy
4:53 PM 82.0 °F 48.9 °F 31% 29.84 in 10.0 mi West 6.9 mph - N/A   Partly Cloudy
5:53 PM 82.0 °F 48.0 °F 30% 29.83 in 10.0 mi Variable 3.5 mph - N/A   Partly Cloudy
6:53 PM 82.0 °F 48.9 °F 31% 29.81 in 10.0 mi SW 9.2 mph - N/A   Partly Cloudy
7:53 PM 81.0 °F 48.9 °F 33% 29.80 in 10.0 mi South 11.5 mph - N/A   Partly Cloudy
8:53 PM 75.9 °F 51.1 °F 42% 29.81 in 10.0 mi SSE 10.4 mph - N/A   Partly Cloudy
9:53 PM 71.6 °F 55.4 °F 57% 29.93 in 10.0 mi SE 10.4 mph - N/A   Partly Cloudy
10:53 PM 69.8 °F 53.6 °F 56% 29.81 in 10.0 mi SE 10.4 mph - N/A   Overcast
11:53 PM 69.1 °F 55.0 °F 61% 29.81 in 10.0 mi SE 10.4 mph - N/A   Clear